Weather History for Vitoria, Spain

Change the Weather History Date:

Thursday, May 8, 2014

  Actual Average Record
Temperature  
Mean Temperature 58 °F -  
Max Temperature 74 °F 70 °F 74 °F (2014)
Min Temperature 41 °F 46 °F 33 °F (1997)
Degree Days  
Heating Degree Days 8    
Growing Degree Days 8 (Base 50)    
Moisture  
Dew Point 49 °F    
Average Humidity 81    
Maximum Humidity 100    
Minimum Humidity 36    
Precipitation  
Precipitation 0.00 in - - ()
Sea Level Pressure  
Sea Level Pressure 30.17 in    
Wind  
Wind Speed 3 mph ()    
Max Wind Speed 20 mph    
Max Gust Speed -    
Visibility 4.5 miles    
Events Fog    
Averages and records for this station are not official NWS values.
T = Trace of Precipitation, MM = Missing Value Source: Averaged Metar Reports

Daily Weather History Graph

Daily Weather History Graph

Search for Another Location

Airport:

Trip Planner

Search our weather history database for the weather conditions in past years. The results will help you decide how hot, cold, wet, or windy it might be!

Date:

Astronomy

May. 08, 2014 Rise Set
Actual Time 6:56 AM CEST 9:19 PM CEST
Civil Twilight 6:24 AM CEST 9:51 PM CEST
Nautical Twilight 5:45 AM CEST 10:30 PM CEST
Astronomical Twilight 5:01 AM CEST 11:14 PM CEST
Moon 2:57 PM CEST (5/8) 3:29 AM CEST (5/8)
Length of Visible Light 15h 26m
Length of Day
14h 23m
Waxing Gibbous, 62% of the Moon is Illuminated
May 8
Waxing Gibbous
May 14
Full
May 21
Last Quarter
May 28
New
Jun 5
First Quarter

Hourly Weather History & Observations

Time (CEST) Temp. Windchill Dew Point Humidity Pressure Visibility Wind Dir Wind Speed Gust Speed Precip Events Conditions
12:00 AM 48.2 °F - 48.2 °F 100% 30.18 in - East 1.2 mph - N/A   Clear
12:30 AM 50.0 °F - 48.2 °F 94% 30.18 in - Calm Calm - N/A   Clear
1:00 AM 48.2 °F - 48.2 °F 100% 30.18 in - Variable 2.3 mph - N/A   Clear
1:30 AM 48.2 °F - 46.4 °F 93% 30.18 in - Variable 1.2 mph - N/A   Clear
2:00 AM 46.4 °F - 46.4 °F 100% 30.18 in - East 1.2 mph - N/A   Clear
2:30 AM 46.4 °F - 44.6 °F 93% 30.18 in - East 1.2 mph - N/A   Clear
3:00 AM 46.4 °F - 44.6 °F 93% 30.18 in - Calm Calm - N/A   Clear
3:30 AM 44.6 °F - 42.8 °F 93% 30.18 in - Calm Calm - N/A   Clear
4:00 AM 42.8 °F - 41.0 °F 93% 30.18 in 5.6 mi East 1.2 mph - N/A   Partly Cloudy
4:30 AM 41.0 °F - 41.0 °F 100% 30.18 in 5.6 mi NNE 1.2 mph - N/A   Partly Cloudy
5:00 AM 42.8 °F 41.1 °F 42.8 °F 100% 30.18 in 5.0 mi East 3.5 mph - N/A   Partly Cloudy
5:30 AM 41.0 °F 39.0 °F 41.0 °F 100% 30.15 in 3.1 mi NNE 3.5 mph - N/A Fog Partly Cloudy
5:36 AM 41.0 °F 39.0 °F 41.0 °F 100% 30.15 in 0.7 mi NE 3.5 mph - N/A Fog Scattered Clouds
6:00 AM 42.8 °F - 42.8 °F 100% 30.15 in 0.3 mi ENE 2.3 mph - N/A Fog Fog
6:30 AM 44.6 °F - 44.6 °F 100% 30.15 in 0.1 mi NNE 2.3 mph - N/A Fog Fog
6:46 AM 44.6 °F - 44.6 °F 100% 30.18 in 1.1 mi NNE 2.3 mph - N/A Fog Patches of Fog
7:00 AM 44.6 °F - 44.6 °F 100% 30.18 in 1.6 mi North 1.2 mph - N/A Fog Patches of Fog
7:23 AM 44.6 °F - 44.6 °F 100% 30.18 in 0.4 mi Variable 1.2 mph - N/A Fog Fog
7:30 AM 46.4 °F - 46.4 °F 100% 30.18 in 0.2 mi Calm Calm - N/A Fog Fog
8:00 AM 47 °F - 47 °F 100% 30.20 in 0 mi NW 2.3 mph - - Fog Heavy Fog
8:00 AM 46.4 °F - 46.4 °F 100% 30.18 in 0.1 mi NW 1.2 mph - N/A Fog Fog
8:30 AM 48.2 °F - 48.2 °F 100% 30.18 in 0.2 mi Variable 1.2 mph - N/A Fog Fog
9:00 AM 48.2 °F - 48.2 °F 100% 30.18 in 0.2 mi Variable 2.3 mph - N/A Fog Fog
9:30 AM 48.2 °F - 48.2 °F 100% 30.18 in 0.6 mi Variable 2.3 mph - N/A Fog Fog
10:00 AM 50.0 °F - 50.0 °F 100% 30.18 in 1.2 mi Calm Calm - N/A Fog Mostly Cloudy
10:30 AM 51.8 °F - 51.8 °F 100% 30.18 in 2.2 mi Variable 1.2 mph - N/A Fog Mostly Cloudy
11:00 AM 56 °F - 51 °F 79% 30.19 in 4 mi Calm Calm - -   Mist
11:00 AM 53.6 °F - 51.8 °F 94% 30.18 in 3.7 mi Calm Calm - N/A   Mostly Cloudy
11:30 AM 57.2 °F - 51.8 °F 82% 30.18 in 5.0 mi Calm Calm - N/A   Scattered Clouds
12:00 PM 60.8 °F - 53.6 °F 77% 30.18 in 6.2 mi Variable 1.2 mph - N/A   Partly Cloudy
12:30 PM 62.6 °F - 51.8 °F 68% 30.15 in 6.2 mi Calm Calm - N/A   Partly Cloudy
1:00 PM 66.2 °F - 51.8 °F 60% 30.15 in - North 2.3 mph - N/A   Clear
1:30 PM 66.2 °F - 51.8 °F 60% 30.15 in - Variable 1.2 mph - N/A   Clear
2:00 PM 72 °F - 51 °F 36% 30.09 in 16 mi NE 2.3 mph - -   Partly Cloudy
2:00 PM 69.8 °F - 46.4 °F 43% 30.15 in - Calm Calm - N/A   Clear
2:30 PM 69.8 °F - 46.4 °F 43% 30.15 in 6.2 mi NE 5.8 mph - N/A   Partly Cloudy
3:00 PM 71.6 °F - 48.2 °F 43% 30.15 in 6.2 mi NE 8.1 mph - N/A   Partly Cloudy
3:30 PM 73.4 °F - 53.6 °F 50% 30.12 in 6.2 mi NE 6.9 mph - N/A   Partly Cloudy
4:00 PM 71.6 °F - 57.2 °F 60% 30.12 in 6.2 mi NE 12.7 mph - N/A   Partly Cloudy
4:30 PM 69.8 °F - 55.4 °F 60% 30.12 in 6.2 mi NNE 15.0 mph - N/A   Partly Cloudy
5:00 PM 70 °F - 55 °F 50% 30.10 in 12 mi NNE 18.4 mph - -   Scattered Clouds
5:00 PM 68.0 °F - 55.4 °F 64% 30.15 in 6.2 mi NNE 17.3 mph - N/A   Partly Cloudy
5:30 PM 68.0 °F - 51.8 °F 56% 30.15 in 6.2 mi NNE 19.6 mph - N/A   Partly Cloudy
6:00 PM 66.2 °F - 51.8 °F 60% 30.18 in 6.2 mi NNE 17.3 mph - N/A   Partly Cloudy
6:30 PM 66.2 °F - 51.8 °F 60% 30.18 in 6.2 mi NNE 15.0 mph - N/A   Partly Cloudy
7:00 PM 64.4 °F - 51.8 °F 64% 30.18 in 6.2 mi NNE 13.8 mph - N/A   Partly Cloudy
7:30 PM 64.4 °F - 51.8 °F 64% 30.15 in 6.2 mi NNE 10.4 mph - N/A   Partly Cloudy
8:00 PM 63 °F - 52 °F 58% 30.14 in 12 mi North 11.5 mph - -   Scattered Clouds
8:00 PM 62.6 °F - 51.8 °F 68% 30.18 in 6.2 mi NNE 10.4 mph - N/A   Partly Cloudy
8:30 PM 62.6 °F - 51.8 °F 68% 30.18 in 6.2 mi NNE 9.2 mph - N/A   Partly Cloudy
9:00 PM 60.8 °F - 51.8 °F 72% 30.18 in 6.2 mi North 6.9 mph - N/A   Partly Cloudy
9:30 PM 59.0 °F - 51.8 °F 77% 30.18 in - North 5.8 mph - N/A   Clear
10:00 PM 59.0 °F - 51.8 °F 77% 30.18 in - North 4.6 mph - N/A   Clear
10:30 PM 55.4 °F - 51.8 °F 88% 30.21 in - NE 6.9 mph - N/A   Clear
11:00 PM 53.6 °F - 50.0 °F 88% 30.21 in - NNE 3.5 mph - N/A   Clear
11:30 PM 51.8 °F - 50.0 °F 94% 30.21 in - NNE 4.6 mph - N/A   Clear